Location: Unspecified
(0.0000°N, 0.0000°E)
Time: 07:39:59
(UTC+00:00)

Explorer 11/Cluster Stage 4 - Pass Details

Date: 15 December 2018
Orbit: 467 x 1260 km, 28.8° (Epoch: 15 June)

Event Time Altitude Azimuth Distance (km) Brightness Sun altitude
Rises 20:02:45 0° 228° (SW) 4,162 11.4 -29.0°
Reaches altitude 10° 20:05:58 10° 222° (SW) 3,139 10.4 -29.7°
Maximum altitude 20:13:22 44° 152° (SSE) 1,452 7.8 -31.4°
Enters shadow 20:13:27 44° 151° (SSE) 1,450 7.8 -31.4°
